Norvenich Airport ETNN

Flugplatz Daten

Name: Norvenich Airport

Ident: ETNN

Lat: 50,83119965

Long: 6,658170223

Platzhöhe: 386 ft

IataCode: QOE

City:

Metar

2022/08/10 19:20
ETNN 101920Z 04008KT 9999 26/09 Q1022 BLU+

Taf

2020/11/06 00:36
TAF ETNN 062300Z 0700/0715 10005KT 9999 NSW SKC
TEMPO 0703/0707 12003KT 4000 BR SKC BY ETGL
Gewünschte Webcam nicht vorhanden? Dann fügen Sie eine hinzu. Sie wird dann so schnell wie möglich freigeschaltet
Url: Title: